FW8889 Weather Reports


Display with metric or nautical units.
time (UTC)temp
F
wind
direction
speed
MPH
gust
MPH
rain 1hr
in
rain 24hr
in
rain mn
in
humidity
%
barometer
mb
20260509044550 44 0 0.0 0.0 0.00 0.00 0.00 71 1014.4
20260509043057 44 0 0.0 0.0 0.00 0.00 0.00 69 1014.4
20260509041551 45 0 0.0 0.0 0.00 0.00 0.00 68 1014.3
20260509040058 45 0 0.0 0.0 0.00 0.00 0.00 67 1014.2
20260509034554 46 0 0.0 1.0 0.00 0.00 0.00 65 1014.1
20260509033054 47 0 0.0 0.0 0.00 0.00 0.00 62 1014.0
20260509031552 48 0 0.0 0.0 0.00 0.00 0.00 60 1014.0
20260509030053 49 0 0.0 0.0 0.00 0.00 0.00 57 1013.9
20260509024546 50 0 0.0 0.0 0.00 0.00 0.00 56 1013.7
20260509023053 50 0 0.0 1.0 0.00 0.00 0.00 54 1013.8
20260509021549 51 0 0.0 0.0 0.00 0.00 0.00 53 1013.4
20260509020054 51 0 0.0 1.0 0.00 0.00 0.00 52 1013.3
20260509014548 51 0 0.0 0.0 0.00 0.00 0.00 49 1013.1
20260509013055 52 0 0.0 2.0 0.00 0.00 0.00 49 1012.9
20260509011545 52 0 0.0 2.0 0.00 0.00 0.00 48 1012.5
20260509010046 52 95 1.0 3.0 0.00 0.00 0.00 48 1012.1
20260509004610 53 0 0.0 2.0 0.00 0.00 0.00 47 1011.8
20260509003053 53 333 0.0 4.0 0.00 0.00 0.00 44 1011.5
20260509001553 54 0 0.0 2.0 0.00 0.00 0.00 44 1011.3
20260509000048 55 151 0.0 2.0 0.00 0.00 0.00 42 1011.2
20260508234550 55 329 0.0 6.0 0.00 0.00 0.00 39 1010.8
20260508233051 56 69 0.0 3.0 0.00 0.00 0.00 40 1010.5
20260508231552 56 0 0.0 3.0 0.00 0.00 0.00 39 1010.3
20260508230053 57 133 1.0 4.0 0.00 0.00 0.00 38 1010.0
20260508224553 58 0 1.0 7.0 0.00 0.00 0.00 37 1009.9
20260508223050 58 94 0.0 8.0 0.00 0.00 0.00 36 1009.8
20260508221551 58 355 1.0 7.0 0.00 0.00 0.00 35 1009.9
20260508220052 58 281 1.0 5.0 0.00 0.00 0.00 37 1009.9
20260508214601 59 154 2.0 6.0 0.00 0.00 0.00 36 1009.7
20260508213050 61 352 1.0 5.0 0.00 0.00 0.00 33 1009.5
20260508211548 61 159 2.0 7.0 0.00 0.00 0.00 33 1009.5
20260508210055 60 289 1.0 4.0 0.00 0.00 0.00 35 1009.5
20260508204550 60 178 1.0 7.0 0.00 0.00 0.00 34 1009.3
20260508203053 60 0 1.0 9.0 0.00 0.00 0.00 35 1009.3
20260508201549 59 0 1.0 6.0 0.00 0.00 0.00 36 1009.1
20260508200050 60 106 2.0 13.0 0.00 0.00 0.00 34 1009.2
20260508194547 60 256 2.0 6.0 0.00 0.00 0.00 33 1009.2
20260508193102 58 0 2.0 8.0 0.00 0.00 0.00 36 1009.2
20260508191557 58 115 1.0 7.0 0.00 0.00 0.00 36 1009.3
20260508190104 59 311 1.0 10.0 0.00 0.00 0.00 37 1009.2
20260508184559 60 309 2.0 6.0 0.00 0.00 0.00 34 1009.2
20260508183101 59 324 1.0 9.0 0.00 0.00 0.00 41 1009.3
20260508181551 59 129 2.0 11.0 0.00 0.00 0.00 37 1009.3
20260508180105 59 311 3.0 10.0 0.00 0.00 0.00 36 1009.2
20260508174608 59 229 2.0 7.0 0.00 0.00 0.00 38 1009.1
20260508173051 60 321 2.0 8.0 0.00 0.00 0.00 39 1009.2
20260508171551 59 71 2.0 7.0 0.00 0.00 0.00 35 1009.2
20260508170059 59 305 2.0 9.0 0.00 0.00 0.00 37 1009.1
20260508164553 58 113 1.0 7.0 0.00 0.00 0.00 43 1009.1
20260508163051 57 0 0.0 4.0 0.00 0.00 0.00 43 1009.2
20260508161548 57 168 3.0 8.0 0.00 0.00 0.00 38 1009.5
20260508160049 57 198 3.0 9.0 0.00 0.00 0.00 37 1009.7
20260508154553 57 143 2.0 7.0 0.00 0.00 0.00 46 1009.8
20260508153054 58 219 1.0 6.0 0.00 0.00 0.00 38 1009.8
20260508151550 57 194 1.0 7.0 0.00 0.00 0.00 37 1009.8
20260508150051 56 200 1.0 9.0 0.00 0.00 0.00 38 1009.8
20260508144552 55 290 1.0 5.0 0.00 0.00 0.00 42 1009.8
20260508143055 55 278 1.0 6.0 0.00 0.00 0.00 42 1010.0
20260508141554 55 61 2.0 10.0 0.00 0.00 0.00 39 1010.1
20260508140044 54 163 0.0 6.0 0.00 0.00 0.00 43 1010.5
20260508134551 54 142 2.0 9.0 0.00 0.00 0.00 44 1010.6
20260508133048 53 126 1.0 6.0 0.00 0.00 0.00 45 1010.3
20260508131603 52 310 1.0 7.0 0.00 0.00 0.00 47 1010.4
20260508130048 51 352 1.0 4.0 0.00 0.00 0.00 48 1010.3
20260508124551 50 245 1.0 6.0 0.00 0.00 0.00 49 1010.3
20260508123106 49 163 1.0 11.0 0.00 0.00 0.00 54 1010.6
20260508121555 48 144 2.0 6.0 0.00 0.00 0.00 56 1010.7
20260508120106 47 11 0.0 4.0 0.00 0.00 0.00 58 1010.6
20260508114558 45 0 0.0 5.0 0.00 0.00 0.00 63 1010.5
20260508113100 42 57 0.0 2.0 0.00 0.00 0.00 70 1010.6
20260508111551 41 0 0.0 1.0 0.00 0.00 0.00 76 1010.5
20260508110100 39 0 0.0 0.0 0.00 0.00 0.00 80 1010.4
20260508104550 39 0 0.0 0.0 0.00 0.00 0.00 81 1010.3
20260508103102 39 0 0.0 0.0 0.00 0.00 0.00 81 1010.2
20260508101555 38 0 0.0 0.0 0.00 0.00 0.00 81 1009.9
20260508100050 38 0 0.0 0.0 0.00 0.00 0.00 81 1009.7
20260508094548 38 0 0.0 0.0 0.00 0.00 0.00 81 1009.8
20260508093051 38 0 0.0 0.0 0.00 0.00 0.00 81 1009.6
20260508091549 38 0 0.0 0.0 0.00 0.00 0.00 82 1009.5
20260508090058 37 0 0.0 1.0 0.00 0.00 0.00 82 1009.6
20260508084548 37 0 0.0 1.0 0.00 0.00 0.00 82 1009.4
20260508083052 38 0 0.0 0.0 0.00 0.00 0.00 82 1009.2
20260508081554 38 0 0.0 0.0 0.00 0.00 0.00 81 1009.1
20260508080051 38 0 0.0 0.0 0.00 0.00 0.00 80 1008.8
20260508074550 39 0 0.0 1.0 0.00 0.01 0.00 78 1008.6
20260508073049 39 0 0.0 0.0 0.00 0.01 0.00 78 1008.2
20260508071552 39 0 0.0 1.0 0.00 0.01 0.00 77 1008.4
20260508070056 40 0 0.0 0.0 0.00 0.01 0.00 77 1008.4
20260508064548 40 0 0.0 0.0 0.00 0.01 0.00 75 1008.3
20260508063100 40 0 0.0 1.0 0.00 0.01 0.00 75 1008.3
20260508061550 41 0 0.0 0.0 0.00 0.01 0.00 77 1008.3
20260508060049 41 0 0.0 1.0 0.00 0.01 0.00 78 1008.4
20260508054547 42 0 0.0 1.0 0.00 0.01 0.00 76 1008.6
20260508053102 42 0 0.0 0.0 0.00 0.01 0.00 72 1008.7
20260508051548 43 0 0.0 0.0 0.00 0.01 0.00 72 1008.8
20260508050050 44 0 0.0 1.0 0.00 0.01 0.00 68 1009.0